Regional Weather Roundup
Issued by NWS

Home | Current Version | Previous Version | Graphics & Text | Print | Product List | Glossary On
Versions: 1 2 3 4 5 6 7 8 9 10 11 12 13 14 15 16 17 18 19 20 21 22 23 24 25 26 27 28 29 30 31 32 33 34 35 36 37 38 39 40 41 42 43 44 45 46 47 48 49 50
000
ASUS43 KBIS 231620
RWRND

NORTH DAKOTA REGIONAL WEATHER ROUNDUP
NATIONAL WEATHER SERVICE BISMARCK ND
1100 AM CDT WED APR 23 2014

NOTE: "FAIR" INDICATES FEW OR NO CLOUDS BELOW 12,000 FEET WITH NO
SIGNIFICANT WEATHER AND/OR OBSTRUCTIONS TO VISIBILITY.


NDZ001>003-009>011-017-231700-
NORTHWEST NORTH DAKOTA

CITY           SKY/WX    TMP DP  RH WIND       PRES   REMARKS
WILLISTON      CLOUDY    56  38  50 SE21G30   29.44R
MINOT          LGT RAIN  48  43  82 E29G43    29.57F
MINOT AFB      CLOUDY    47  47  99 SE25G36   29.57F
$$

NDZ018>021-031>035-040>046-231700-
SOUTHWEST NORTH DAKOTA

CITY           SKY/WX    TMP DP  RH WIND       PRES   REMARKS
BISMARCK       PTSUNNY   58  39  49 SE35G41   29.56F
DICKINSON      CLOUDY    54  35  48 S26G35    29.43R
GARRISON         N/A     50  42  74 SE29G38   29.53F
HETTINGER ARPT CLOUDY    52  36  54 SE16G23   29.47R
$$

NDZ004>008-012>016-024-026-027-054-231700-
NORTHEAST NORTH DAKOTA

CITY           SKY/WX    TMP DP  RH WIND       PRES   REMARKS
GRAND FORKS    LGT RAIN  45  37  76 SE20G25   29.87S
GRND FRKS AFB  MIX PCPN  43  39  88 SE15      29.87S
DEVILS LAKE    CLOUDY    41  36  81 SE16      29.77R
$$

NDZ022-023-025-028>030-036>039-047>053-231700-
SOUTHEAST NORTH DAKOTA

CITY           SKY/WX    TMP DP  RH WIND       PRES   REMARKS
FARGO          CLOUDY    44  39  82 SE20G33   29.86F
JAMESTOWN      CLOUDY    47  41  80 SE25G36   29.73R
$$




USA.gov is the U.S. government's official web portal to all federal, state and local government web resources and services.